TAP1PA EGLL-LPPT

Flight info

Callsign TAP1PA
Flight time N/A
Altitude 38000
Route GASGU N866 SAM M195 LORKU DCT POZOF DCT BALDA DCT ABUPI DCT XAMAX
Aircraft A320/M-SDE3FGHIRWY/LB1

Departure

Time N/A
Airport London Heathrow Airport (EGLL)

Arrival

Time 2026-05-07 22:54
Airport Lisbon Humberto Delgado Airport (LPPT)
Time Latitude Longitude Altitude Speed Heading
2026-05-07 21:51 42.30254 -6.92463 37965 ft 403 kts 208°
2026-05-07 21:52 42.25091 -6.95403 37967 ft 402 kts 208°
2026-05-07 21:52 42.19944 -6.98330 37964 ft 401 kts 208°
2026-05-07 21:53 42.14801 -7.01250 37952 ft 401 kts 208°
2026-05-07 21:53 42.09666 -7.04155 37955 ft 400 kts 208°
2026-05-07 21:54 42.04535 -7.07049 37960 ft 399 kts 208°
2026-05-07 21:54 41.99422 -7.09942 37954 ft 399 kts 208°
2026-05-07 21:55 41.94314 -7.12832 37941 ft 398 kts 208°
2026-05-07 21:55 41.89207 -7.15704 37949 ft 397 kts 208°
2026-05-07 21:56 41.84116 -7.18561 37951 ft 397 kts 208°
2026-05-07 21:56 41.79025 -7.21416 37950 ft 396 kts 208°
2026-05-07 21:57 41.74027 -7.24445 37953 ft 390 kts 214°
2026-05-07 21:57 41.69342 -7.28109 37953 ft 389 kts 214°
2026-05-07 21:58 41.64671 -7.31738 37957 ft 388 kts 214°
2026-05-07 21:58 41.60006 -7.35350 37955 ft 387 kts 214°
2026-05-07 21:59 41.55351 -7.38957 37950 ft 386 kts 214°
2026-05-07 21:59 41.51483 -7.41947 37935 ft 386 kts 214°
2026-05-07 22:00 41.46840 -7.45529 37944 ft 386 kts 214°
2026-05-07 22:00 41.42196 -7.49104 37949 ft 385 kts 214°
2026-05-07 22:01 41.37559 -7.52677 37956 ft 385 kts 214°
2026-05-07 22:01 41.32927 -7.56245 37950 ft 384 kts 214°
2026-05-07 22:02 41.28297 -7.59793 37949 ft 384 kts 213°
2026-05-07 22:02 41.23666 -7.63325 37966 ft 383 kts 213°
2026-05-07 22:03 41.19049 -7.66851 37960 ft 383 kts 213°
2026-05-07 22:03 41.14432 -7.70381 37960 ft 383 kts 213°
2026-05-07 22:04 41.09818 -7.73906 37962 ft 383 kts 213°
2026-05-07 22:04 41.05227 -7.77390 37944 ft 383 kts 213°
2026-05-07 22:05 41.00604 -7.80888 37946 ft 382 kts 213°
2026-05-07 22:05 40.95982 -7.84395 37956 ft 383 kts 213°
2026-05-07 22:06 40.91353 -7.87901 37957 ft 383 kts 213°
2026-05-07 22:06 40.86723 -7.91400 37964 ft 383 kts 213°
2026-05-07 22:07 40.82096 -7.94896 37956 ft 383 kts 212°
2026-05-07 22:07 40.77464 -7.98391 37956 ft 383 kts 212°
2026-05-07 22:08 40.72831 -8.01875 37950 ft 383 kts 212°
2026-05-07 22:08 40.68196 -8.05350 37948 ft 383 kts 212°
2026-05-07 22:09 40.63554 -8.08820 37956 ft 383 kts 212°
2026-05-07 22:09 40.58919 -8.12289 37943 ft 383 kts 212°
2026-05-07 22:10 40.54283 -8.15752 37950 ft 383 kts 212°
2026-05-07 22:10 40.49639 -8.19220 37785 ft 384 kts 212°
2026-05-07 22:11 40.47319 -8.20952 37417 ft 383 kts 212°
2026-05-07 22:11 40.45001 -8.22680 36720 ft 383 kts 212°
2026-05-07 22:11 40.42669 -8.24416 35836 ft 388 kts 212°
2026-05-07 22:11 40.40308 -8.26173 34955 ft 393 kts 212°
2026-05-07 22:12 40.37910 -8.27953 34065 ft 399 kts 211°
2026-05-07 22:12 40.35512 -8.29733 33067 ft 404 kts 211°
2026-05-07 22:12 40.33052 -8.31556 32059 ft 409 kts 211°
2026-05-07 22:12 40.30560 -8.33405 31051 ft 414 kts 211°
2026-05-07 22:13 40.28044 -8.35269 30223 ft 415 kts 210°
2026-05-07 22:13 40.25544 -8.37117 29501 ft 411 kts 210°
2026-05-07 22:13 40.23064 -8.38944 28770 ft 407 kts 210°
2026-05-07 22:13 40.20612 -8.40748 28078 ft 403 kts 210°
2026-05-07 22:14 40.18180 -8.42539 27402 ft 399 kts 210°
2026-05-07 22:14 40.15779 -8.44308 26750 ft 395 kts 210°
2026-05-07 22:14 40.13394 -8.46064 26112 ft 391 kts 210°
2026-05-07 22:14 40.11032 -8.47799 25497 ft 388 kts 209°
2026-05-07 22:15 40.08686 -8.49524 25071 ft 386 kts 209°
2026-05-07 22:15 40.06339 -8.51247 24933 ft 387 kts 208°
2026-05-07 22:15 40.03885 -8.52600 24948 ft 379 kts 198°
2026-05-07 22:15 40.01317 -8.53261 24956 ft 377 kts 187°
2026-05-07 22:16 39.98694 -8.53256 24954 ft 378 kts 179°
2026-05-07 22:16 39.96072 -8.53027 24955 ft 378 kts 179°
2026-05-07 22:16 39.93452 -8.52804 24949 ft 378 kts 179°
2026-05-07 22:16 39.90826 -8.52587 24958 ft 378 kts 179°
2026-05-07 22:17 39.88206 -8.52374 24955 ft 377 kts 179°
2026-05-07 22:17 39.85585 -8.52161 24955 ft 377 kts 179°
2026-05-07 22:17 39.82964 -8.51948 24953 ft 374 kts 179°
2026-05-07 22:17 39.80429 -8.51735 24952 ft 357 kts 179°
2026-05-07 22:18 39.78008 -8.51586 24955 ft 340 kts 185°
2026-05-07 22:18 39.73562 -8.53141 24956 ft 331 kts 209°
2026-05-07 22:18 39.71593 -8.54690 24958 ft 331 kts 211°
2026-05-07 22:19 39.69636 -8.56244 24637 ft 328 kts 211°
2026-05-07 22:19 39.67690 -8.57782 24195 ft 327 kts 211°
2026-05-07 22:19 39.65750 -8.59307 23762 ft 325 kts 211°
2026-05-07 22:19 39.63820 -8.60820 23326 ft 323 kts 211°
2026-05-07 22:20 39.61902 -8.62326 22853 ft 321 kts 210°
2026-05-07 22:20 39.59998 -8.63822 22405 ft 319 kts 210°
2026-05-07 22:20 39.58104 -8.65307 21975 ft 317 kts 210°
2026-05-07 22:20 39.56224 -8.66782 21554 ft 315 kts 210°
2026-05-07 22:21 39.54357 -8.68245 21142 ft 313 kts 210°
2026-05-07 22:21 39.52501 -8.69699 20747 ft 311 kts 210°
2026-05-07 22:21 39.50681 -8.71125 20338 ft 309 kts 210°
2026-05-07 22:21 39.48851 -8.72561 19984 ft 306 kts 210°
2026-05-07 22:22 39.47038 -8.73980 19621 ft 303 kts 210°
2026-05-07 22:22 39.45235 -8.75386 19235 ft 302 kts 210°
2026-05-07 22:22 39.43439 -8.76786 18859 ft 300 kts 210°
2026-05-07 22:22 39.41659 -8.78177 18489 ft 298 kts 210°
2026-05-07 22:23 39.39936 -8.79667 18110 ft 298 kts 218°
2026-05-07 22:23 39.38483 -8.81578 17706 ft 299 kts 226°
2026-05-07 22:23 39.37120 -8.83599 17289 ft 297 kts 225°
2026-05-07 22:23 39.35764 -8.85602 16893 ft 296 kts 225°
2026-05-07 22:24 39.34365 -8.87532 16501 ft 291 kts 216°
2026-05-07 22:24 39.32741 -8.89063 16108 ft 289 kts 212°
2026-05-07 22:24 39.31108 -8.90562 15747 ft 287 kts 212°
2026-05-07 22:24 39.29480 -8.92056 15389 ft 286 kts 212°
2026-05-07 22:25 39.27864 -8.93538 15025 ft 285 kts 212°
2026-05-07 22:25 39.26251 -8.95014 14680 ft 283 kts 212°
2026-05-07 22:25 39.24649 -8.96479 14332 ft 282 kts 212°
2026-05-07 22:25 39.23051 -8.97936 13984 ft 281 kts 212°
2026-05-07 22:26 39.21450 -8.99394 13562 ft 282 kts 212°
2026-05-07 22:26 39.19844 -9.00854 13174 ft 281 kts 212°
2026-05-07 22:26 39.18250 -9.02304 12812 ft 280 kts 212°
2026-05-07 22:26 39.16665 -9.03748 12463 ft 278 kts 212°
2026-05-07 22:27 39.15092 -9.05182 12115 ft 276 kts 212°
2026-05-07 22:27 39.13529 -9.06606 11754 ft 274 kts 212°
2026-05-07 22:27 39.11996 -9.08003 11409 ft 273 kts 212°
2026-05-07 22:27 39.10452 -9.09407 11072 ft 271 kts 212°
2026-05-07 22:28 39.08920 -9.10800 10712 ft 269 kts 213°
2026-05-07 22:28 39.07397 -9.12184 10353 ft 267 kts 213°
2026-05-07 22:28 39.05882 -9.13558 9999 ft 265 kts 213°
2026-05-07 22:28 39.04377 -9.14923 9616 ft 264 kts 213°
2026-05-07 22:29 39.02881 -9.16280 9191 ft 263 kts 213°
2026-05-07 22:29 39.01350 -9.17553 8764 ft 262 kts 207°
2026-05-07 22:29 38.99714 -9.18568 8325 ft 261 kts 204°
2026-05-07 22:29 38.98060 -9.19533 7994 ft 260 kts 204°
2026-05-07 22:30 38.96398 -9.20490 7958 ft 264 kts 204°
2026-05-07 22:30 38.94716 -9.21454 7967 ft 265 kts 204°
2026-05-07 22:30 38.93029 -9.22419 7967 ft 265 kts 204°
2026-05-07 22:30 38.91344 -9.23383 7966 ft 265 kts 204°
2026-05-07 22:31 38.89660 -9.24345 7968 ft 265 kts 204°
2026-05-07 22:31 38.87974 -9.25309 7960 ft 265 kts 204°
2026-05-07 22:31 38.86287 -9.26273 7965 ft 265 kts 204°
2026-05-07 22:31 38.84602 -9.27237 7963 ft 265 kts 204°
2026-05-07 22:32 38.82918 -9.28197 7963 ft 265 kts 204°
2026-05-07 22:32 38.81234 -9.29159 7965 ft 265 kts 204°
2026-05-07 22:32 38.79553 -9.30118 7830 ft 263 kts 204°
2026-05-07 22:32 38.77885 -9.31065 7396 ft 262 kts 204°
2026-05-07 22:33 38.76209 -9.32001 6943 ft 263 kts 204°
2026-05-07 22:33 38.74533 -9.32928 6519 ft 262 kts 204°
2026-05-07 22:33 38.72855 -9.33854 6073 ft 263 kts 204°
2026-05-07 22:33 38.71172 -9.34772 5636 ft 262 kts 204°
2026-05-07 22:34 38.69493 -9.35681 5201 ft 261 kts 204°
2026-05-07 22:34 38.67816 -9.36583 4751 ft 261 kts 203°
2026-05-07 22:34 38.66051 -9.37088 4380 ft 260 kts 181°
2026-05-07 22:34 38.64318 -9.36675 4251 ft 250 kts 158°
2026-05-07 22:35 38.62916 -9.35471 4130 ft 239 kts 134°
2026-05-07 22:35 38.62043 -9.33736 4024 ft 228 kts 110°
2026-05-07 22:35 38.61756 -9.31800 4023 ft 220 kts 89°
2026-05-07 22:35 38.62014 -9.29889 4026 ft 216 kts 72°
2026-05-07 22:36 38.62422 -9.28113 4018 ft 203 kts 72°
2026-05-07 22:36 38.62806 -9.26415 4038 ft 191 kts 73°
2026-05-07 22:36 38.63169 -9.24809 3742 ft 189 kts 72°
2026-05-07 22:36 38.63542 -9.23171 3340 ft 192 kts 71°
2026-05-07 22:37 38.64135 -9.21677 3056 ft 185 kts 49°
2026-05-07 22:37 38.65070 -9.20616 2831 ft 176 kts 28°
2026-05-07 22:37 38.66163 -9.19980 2607 ft 170 kts 20°
2026-05-07 22:37 38.67231 -9.19412 2369 ft 161 kts 20°
2026-05-07 22:38 38.68233 -9.18878 2151 ft 151 kts 19°
2026-05-07 22:38 38.69167 -9.18380 1952 ft 140 kts 19°
2026-05-07 22:38 38.70052 -9.17908 1765 ft 137 kts 21°
2026-05-07 22:38 38.70920 -9.17446 1618 ft 134 kts 20°
2026-05-07 22:39 38.71770 -9.16992 1421 ft 132 kts 20°
2026-05-07 22:39 38.72604 -9.16551 1233 ft 131 kts 20°
2026-05-07 22:39 38.73447 -9.16097 1066 ft 131 kts 21°
2026-05-07 22:39 38.74298 -9.15645 880 ft 132 kts 20°
2026-05-07 22:40 38.75140 -9.15193 696 ft 132 kts 21°
2026-05-07 22:40 38.75985 -9.14744 561 ft 131 kts 20°
2026-05-07 22:40 38.76820 -9.14294 359 ft 128 kts 20°
2026-05-07 22:40 38.77648 -9.13867 524 ft 144 kts 20°
2026-05-07 22:41 38.78703 -9.13320 866 ft 189 kts 20°
2026-05-07 22:41 38.80019 -9.12533 1456 ft 222 kts 36°
2026-05-07 22:41 38.80701 -9.10797 2746 ft 230 kts 94°
2026-05-07 22:41 38.79815 -9.08945 2946 ft 290 kts 162°
2026-05-07 22:42 38.77791 -9.09571 3040 ft 334 kts 215°
2026-05-07 22:42 38.75929 -9.11369 2977 ft 331 kts 215°
2026-05-07 22:42 38.75569 -9.11659 2978 ft 327 kts 212°
2026-05-07 22:42 38.73495 -9.12856 3012 ft 329 kts 200°
2026-05-07 22:43 38.71324 -9.13774 3003 ft 329 kts 199°
2026-05-07 22:43 38.69145 -9.14680 3011 ft 329 kts 199°
2026-05-07 22:43 38.66967 -9.15580 3031 ft 330 kts 199°
2026-05-07 22:43 38.64782 -9.16476 3031 ft 330 kts 199°
2026-05-07 22:44 38.62598 -9.17372 3015 ft 329 kts 199°
2026-05-07 22:44 38.60416 -9.18265 3015 ft 329 kts 199°
2026-05-07 22:44 38.58233 -9.19156 3018 ft 329 kts 199°
2026-05-07 22:44 38.56047 -9.20044 3019 ft 329 kts 199°
2026-05-07 22:45 38.53882 -9.20930 3021 ft 319 kts 199°
2026-05-07 22:45 38.51852 -9.21757 3023 ft 294 kts 199°
2026-05-07 22:45 38.49973 -9.22507 3023 ft 272 kts 198°
2026-05-07 22:45 38.48274 -9.23329 3023 ft 250 kts 212°
2026-05-07 22:46 38.47011 -9.24694 3023 ft 229 kts 234°
2026-05-07 22:46 38.46276 -9.26381 3015 ft 210 kts 254°
2026-05-07 22:46 38.46040 -9.28128 3022 ft 192 kts 272°
2026-05-07 22:46 38.46465 -9.29643 3011 ft 183 kts 317°
2026-05-07 22:47 38.47623 -9.30177 3023 ft 185 kts
2026-05-07 22:47 38.48772 -9.29430 3046 ft 191 kts 36°
2026-05-07 22:47 38.49901 -9.28576 3031 ft 188 kts 18°
2026-05-07 22:47 38.51123 -9.27961 3026 ft 189 kts 19°
2026-05-07 22:48 38.52340 -9.27326 3024 ft 188 kts 19°
2026-05-07 22:48 38.53550 -9.26687 3029 ft 188 kts 21°
2026-05-07 22:48 38.54759 -9.26046 3029 ft 188 kts 20°
2026-05-07 22:48 38.55559 -9.25622 3019 ft 188 kts 21°
2026-05-07 22:49 38.56770 -9.24979 3031 ft 189 kts 20°
2026-05-07 22:49 38.57980 -9.24336 3034 ft 188 kts 20°
2026-05-07 22:49 38.59190 -9.23693 3032 ft 188 kts 21°
2026-05-07 22:49 38.60795 -9.22839 3019 ft 189 kts 20°
2026-05-07 22:50 38.62008 -9.22194 3019 ft 189 kts 20°
2026-05-07 22:50 38.63219 -9.21550 3029 ft 189 kts 20°
2026-05-07 22:50 38.64026 -9.21120 3003 ft 182 kts 20°
2026-05-07 22:50 38.65169 -9.20510 2809 ft 176 kts 20°
2026-05-07 22:51 38.66282 -9.19918 2575 ft 171 kts 20°
2026-05-07 22:51 38.67365 -9.19341 2346 ft 167 kts 20°
2026-05-07 22:51 38.68425 -9.18776 2115 ft 163 kts 20°
2026-05-07 22:51 38.69459 -9.18225 1897 ft 159 kts 21°
2026-05-07 22:52 38.70445 -9.17699 1698 ft 150 kts 20°
2026-05-07 22:52 38.71373 -9.17203 1481 ft 140 kts 20°
2026-05-07 22:52 38.72250 -9.16737 1337 ft 134 kts 20°
2026-05-07 22:52 38.73103 -9.16280 1160 ft 132 kts 20°
2026-05-07 22:53 38.73946 -9.15830 969 ft 131 kts 20°
2026-05-07 22:53 38.74786 -9.15384 776 ft 130 kts 20°
2026-05-07 22:53 38.75623 -9.14937 597 ft 130 kts 20°
2026-05-07 22:53 38.76461 -9.14492 420 ft 130 kts 21°
2026-05-07 22:54 38.77276 -9.14055 361 ft 116 kts 21°
2026-05-07 22:54 38.77867 -9.13733 367 ft 68 kts 22°
2026-05-07 22:54 38.78143 -9.13588 368 ft 18 kts 23°
2026-05-07 22:54 38.78240 -9.13495 365 ft 17 kts 95°
2026-05-07 22:55 38.78126 -9.13444 362 ft 21 kts 172°
2026-05-07 22:55 38.77964 -9.13451 357 ft 26 kts 202°
2026-05-07 22:55 38.77783 -9.13547 355 ft 30 kts 202°
2026-05-07 22:55 38.77583 -9.13653 359 ft 32 kts 202°
2026-05-07 22:56 38.77370 -9.13765 358 ft 35 kts 202°
2026-05-07 22:56 38.77258 -9.13770 354 ft 15 kts 118°
2026-05-07 22:56 38.77272 -9.13620 350 ft 20 kts 78°
2026-05-07 22:56 38.77309 -9.13424 351 ft 26 kts 78°
2026-05-07 22:57 38.77328 -9.13295 339 ft 11 kts 89°
2026-05-07 22:57 38.77268 -9.13241 338 ft 7 kts 166°
2026-05-07 22:57 38.77246 -9.13210 337 ft 5 kts 100°
2026-05-07 22:57 38.77250 -9.13178 335 ft 1 kts 78°
2026-05-07 22:58 38.77251 -9.13173 334 ft 1 kts 78°
2026-05-07 22:58 38.77252 -9.13165 335 ft 1 kts 78°
2026-05-07 22:58 38.77254 -9.13156 335 ft 1 kts 78°
2026-05-07 22:58 38.77254 -9.13153 335 ft 0 kts 78°